Voltar ao catálogo

QIANFAN-126

AtivoComunicaçõesPO
NORAD 68653·PAYLOAD·🇨🇳 China

Lançado Apr 7, 2026 de Wenchang Space Launch Site

Loading…

Próximas Passagens (próximas 24 horas)

TLE

AtualizadoSource: Space-Track

Época: Sep 14, 2026, 21:33 UTC

1 68653U 26075T   26257.89822765  .00000063  00000-0  79154-4 0  9996
2 68653  88.9876 311.8070 0002235  83.6584 276.4821 13.51028983 21948

Acompanhe QIANFAN-126 em tempo real com AllMySat

Download on the App Store